Miscellaneous Local Product
Issued by NWS North Platte, NE

Home | Current Version | Previous Version | Graphics & Text | Print | Product List | Glossary On
Versions: 1 2 3 4 5 6 7 8 9 10 11 12 13 14 15 16 17 18 19 20 21 22 23 24 25 26 27 28 29 30 31 32 33 34 35 36 37 38 39 40 41 42 43 44 45 46 47 48 49 50
000
AXUS43 KLBF 261010
MISLBF


WESTERN AND NORTH CENTRAL NEBRASKA HOURLY WEATHER ROUNDUP
NATIONAL WEATHER SERVICE NORTH PLATTE NE
400 AM CST FRI DEC 26 2014

***STATIONS NOT REPORTING VARIABLES SUCH AS SKY/WEATHER OR
PRESSURE ARE PROVIDED BY THE NEBRASKA DEPARTMENT OF
ROADS...RAWS...AND APRS NETWORKS...AND ARE NOT UNDER
NATIONAL WEATHER SERVICE QUALITY CONTROL***

...OBSERVATIONS IN AND NEAR THE EASTERN PANHANDLE OF NEBRASKA...

CITY           SKY/WX    TMP DP  RH WIND       PRES   REMARKS
PINE RIDGE     CLOUDY    20  16  84 N9        30.01R WCI   9
CHADRON        LGT SNOW  20  17  88 NE6       30.01S FOG     WCI  12
ALLIANCE       CLOUDY    17  14  88 N12       29.94R WCI   4
SIDNEY         CLOUDY    20  17  88 N14       29.92S WCI   7
WHITECLAY        N/A     19  16  86 S13         N/A  WCI   6
CRESCENT LAKE    N/A     17  14  89 N8G20       N/A  WCI   7
LISCO            N/A     23  17  75 NW5         N/A  WCI  17
BIG SPRINGS      N/A     24  21  87 N6          N/A  WCI  17
$$

...OBSERVATIONS IN NORTH CENTRAL NEBRASKA...

CITY           SKY/WX    TMP DP  RH WIND       PRES   REMARKS
VALENTINE      LGT SNOW  23  20  88 N12       30.00R FOG     WCI  12
THEDFORD       CLOUDY    24  22  89 N13G18    29.97S WCI  13
AINSWORTH      CLOUDY    24  22  93 N10       29.99R WCI  13
O`NEILL        CLOUDY    26  25  95 N14       29.97S WCI  15
ORD            CLOUDY    26  22  84 N17G29    29.93R WCI  13
BROKEN BOW     CLOUDY    25  21  85 N20G31    29.93R WCI  11
BROWNLEE         N/A     22  19  89 S12         N/A  WCI  10
SPRINGVIEW       N/A     24  20  86 NW6G13      N/A  WCI  17
BREWSTER         N/A     27  26  94 N12         N/A  WCI  17
ROSE             N/A     28  28 100 N5          N/A  WCI  22
SARGENT          N/A     25  23  91 N8          N/A  WCI  16
COMSTOCK         N/A     30  28  93 N16         N/A  WCI  19
CHAMBERS         N/A     25  24  93 NE5G12      N/A  WCI  19
EWING            N/A     26  25  94 CALM        N/A
$$

...OBSERVATIONS IN SOUTHWEST NEBRASKA AND FAR NORTHEAST COLORADO...

CITY           SKY/WX    TMP DP  RH WIND       PRES   REMARKS
WRAY           CLOUDY    25  23  93 N13       29.93R WCI  13
IMPERIAL       CLOUDY    25  21  85 N12       29.93R FOG     WCI  14
OGALLALA       CLOUDY    24  19  81 N16G24    29.93F WCI  10
NORTH PLATTE   CLOUDY    25  21  85 N14       29.93F WCI  13
MCCOOK         CLOUDY    27  22  81 N22G28    29.92R WCI  13
LEXINGTON      CLOUDY    27  24  85 N26       29.89F WCI  12
PAXTON           N/A     25  22  87 N14         N/A  WCI  13
BRADY            N/A     24  20  85 CALM        N/A
GOTHENBURG       N/A     27  22  82 N15         N/A  WCI  15
CALLAWAY         N/A     23  21  93 N16         N/A  WCI  10
$$

...NORTH PLATTE AREA...

CITY           SKY/WX    TMP DP  RH WIND       PRES   REMARKS
AIRPORT        CLOUDY    25  21  85 N14       29.93F WCI  13
DOWNTOWN         N/A     24  21  87 N9G18       N/A  WCI  14
$$

...SOME WEATHER OBSERVATIONS FROM AROUND THE REGION...

CITY           SKY/WX    TMP DP  RH WIND       PRES   REMARKS
DENVER         LGT SNOW  18  15  88 N8        29.87S WCI   8
LARAMIE        CLOUDY     5   1  83 CALM      29.76R
CHEYENNE       CLOUDY    12   9  87 N7        29.83R WCI   1
SCOTTSBLUFF    CLOUDY    17  14  88 N7        29.96R WCI   8
RAPID CITY     CLOUDY    20  17  88 N12       30.02R WCI   8
PIERRE         CLOUDY    25  21  85 N15       30.03R WCI  13
WINNER         FLURRIES  26  22  84 N17       30.02R WCI  13
SIOUX FALLS    CLOUDY    28  25  88 N14       29.94R WCI  17
OMAHA          CLOUDY    33  31  92 N15       29.86R WCI  23
GRAND ISLAND   CLOUDY    28  25  88 N21       29.90S WCI  15
KANSAS CITY    MOCLDY    45  32  60 S14       29.84R
WICHITA        MOCLDY    42  30  62 S5        29.83R
HAYS           CLOUDY    32  21  64 N24       29.86R WCI  19
LIBERAL        CLOUDY    30  21  69 N20G29    29.84S WCI  18
GOODLAND       CLOUDY    24  22  91 N20       29.87S WCI  10
$$



USA.gov is the U.S. government's official web portal to all federal, state and local government web resources and services.